Starlink 32317

operational
NORAD ID: 60918 Int'l Des: 2024-154 Owner: SPXS Country: US Constellation: starlink
LEOCIRCULAR

Über Starlink 32317

Beschreibung wird geladen...

Live-Position

3D-Globus wird geladen...

Nächste Überflüge

Höhenverlauf

Altitude vs Time

uPlot chart will show altitude changes over time

Zweizeiliger Elementsatz

1 60918U 24154R 25304.84065120 -.00000257 00000-0 34350-5 0 9995
2 60918 53.1590 162.6172 0001162 92.1072 268.0062 15.30187443 66603
Epoch: 31. Okt. 2025 • Age: 17 hours

Aktueller Status

Höhe 478.5 km
Geschwindigkeit 7.63 km/s
Subsatellitenpunkt -11.47°S, 116.61°E
Startdatum 31. Aug. 2024
Alter 1.1 years
Typ internet

Technische Details

Klassifizierung Payload
Masse 730.00 kg
Trockenmasse 700.00 kg
Gesamtmasse 730.00 kg
Länge 0.30 m
Durchmesser 4.10 m
Spannweite 29.00 m
Form Box + pan
Hersteller SPXS
Bus-Typ Starlink V2M
Phasenstatus In Orbit
Besitzer/Staat SPXS/US

Große Konstellationen

Loading constellations...